IW5EFR Vecchia di Pontedera IT current weather conditions

sailwx.info

Wind from 155 at 1 knots gusting 5

Air temperature 8.9° C
Dewpoint 7.2° C

Last reported at 2014-Sep-24 03:47 UTC.
Time now 2014-Sep-24 04:31 UTC

Location: N 43°37' E 010°38'.
View on Google Maps.

See reports from other nearby stations

  
Tides and Currents Weather Stations Pressure Air Temp Water Temp Dewpoint Dewpoint Depression Visibility Wind Speed Wind Dir Waves Ship Positions
date/time (UTC)wind fromknots sea level pressurealtimeterstation pressurevisibilityair tempwater tempwave heightnotes
2014-Sep-24 03:47 155 1 gusting 5 8.9
2014-Sep-24 03:36 156 2 gusting 3 8.9
2014-Sep-24 03:14 124 8.9
2014-Sep-24 03:03 128 1 gusting 3 9.4
2014-Sep-24 02:52 133 1 gusting 3 9.4
2014-Sep-24 02:41 133 2 gusting 3 10.0
2014-Sep-24 02:30 130 2 gusting 4 10.0
2014-Sep-24 02:19 128 0 gusting 0 10.0
2014-Sep-24 02:08 138 8.9
2014-Sep-24 01:57 138 9.4
2014-Sep-24 01:46 138 0 gusting 1 9.4
2014-Sep-24 01:35 138 0 9.4
2014-Sep-24 01:24 138 10.0
2014-Sep-24 01:13 138 10.0
2014-Sep-24 01:02 138 10.0
2014-Sep-24 00:51 138 0 gusting 2 10.6
2014-Sep-24 00:40 139 1 gusting 2 10.6
2014-Sep-24 00:29 139 1 gusting 2 10.6
2014-Sep-24 00:18 139 0 gusting 2 10.6
2014-Sep-24 00:07 139 2 gusting 2 11.1
2014-Sep-23 23:56 139 0 gusting 3 11.7
2014-Sep-23 23:45 139 2 gusting 3 11.7
2014-Sep-23 23:34 138 12.2
2014-Sep-23 23:23 163 12.2
2014-Sep-23 23:12 163 12.2
2014-Sep-23 23:01 165 1 gusting 4 12.2
2014-Sep-23 22:50 165 12.2
2014-Sep-23 22:39 107 1 gusting 3 12.2
2014-Sep-23 22:28 108 2 gusting 6 12.2
2014-Sep-23 22:17 114 1 gusting 0 12.8
2014-Sep-23 22:07 107 13.3
2014-Sep-23 21:55 107 13.9
2014-Sep-23 21:44 107 14.4
2014-Sep-23 21:33 107 15.0
2014-Sep-23 21:22 107 15.6
2014-Sep-23 21:11 107 15.6
2014-Sep-23 20:49 107 0 16.1
2014-Sep-23 20:38 101 17.2
2014-Sep-23 20:27 101 17.2
2014-Sep-23 20:05 115 3 gusting 6 18.3
2014-Sep-23 19:54 118 1 gusting 6 18.3
2014-Sep-23 19:43 102 17.8
2014-Sep-23 19:32 098 1 gusting 1 17.8
2014-Sep-23 19:21 106 2 gusting 1 17.2
2014-Sep-23 18:59 040 17.8
2014-Sep-23 18:48 040 0 gusting 2 17.8
2014-Sep-23 18:37 069 1 gusting 2 18.9
2014-Sep-23 18:26 080 19.4
2014-Sep-23 18:15 097 0 gusting 6 20.0
2014-Sep-23 18:04 096 4 gusting 6 20.0
2014-Sep-23 17:53 099 5 gusting 6 20.0
2014-Sep-23 17:42 103 1 gusting 1 20.0
2014-Sep-23 17:31 051 0 gusting 2 19.4
2014-Sep-23 17:20 024 20.0
2014-Sep-23 17:09 024 20.6
2014-Sep-23 16:58 023 2 gusting 2 21.1
2014-Sep-23 16:47 023 0 gusting 4 21.7
2014-Sep-23 16:36 022 1 gusting 6 22.2
2014-Sep-23 16:25 039 0 gusting 4 22.8
2014-Sep-23 16:14 090 23.3
2014-Sep-23 16:03 043 23.3
2014-Sep-23 15:52 084 1 gusting 3 23.3
2014-Sep-23 15:41 071 23.3
2014-Sep-23 15:30 068 0 gusting 6 23.3
2014-Sep-23 15:19 105 2 gusting 6 23.3
2014-Sep-23 15:08 112 3 gusting 7 23.3
2014-Sep-23 14:57 105 1 gusting 7 23.3
2014-Sep-23 14:46 112 0 gusting 7 23.9
2014-Sep-23 14:35 158 1 gusting 9 23.3
2014-Sep-23 14:24 138 5 gusting 6 23.3
2014-Sep-23 14:13 092 1 gusting 10 23.3
2014-Sep-23 14:02 136 6 gusting 7 23.3
2014-Sep-23 13:51 123 2 gusting 13 23.3
2014-Sep-23 13:40 094 1 gusting 13 23.3
2014-Sep-23 13:29 126 4 gusting 10 23.3
2014-Sep-23 13:18 094 4 gusting 8 23.3
2014-Sep-23 12:56 100 1 gusting 6 22.8
2014-Sep-23 12:45 088 4 gusting 9 22.8
2014-Sep-23 12:34 105 6 gusting 10 22.8
2014-Sep-23 12:12 046 1 gusting 13 22.8
2014-Sep-23 12:01 083 1 gusting 9 22.2
2014-Sep-23 11:50 041 0 gusting 11 22.2
2014-Sep-23 11:28 092 2 gusting 14 21.7
2014-Sep-23 11:17 093 6 gusting 12 21.7
2014-Sep-23 11:06 092 6 gusting 11 21.7
2014-Sep-23 10:55 058 1 gusting 9 21.7
2014-Sep-23 10:22 110 2 gusting 10 21.1
2014-Sep-23 10:11 096 5 gusting 12 21.7
2014-Sep-23 10:00 066 7 gusting 7 21.1
2014-Sep-23 09:49 071 3 gusting 12 20.6
2014-Sep-23 09:38 091 4 gusting 13 20.0
2014-Sep-23 09:27 121 6 gusting 14 20.0
2014-Sep-23 09:16 135 8 gusting 13 20.0
2014-Sep-23 09:05 096 6 gusting 11 20.0
2014-Sep-23 08:54 117 6 gusting 14 19.4
2014-Sep-23 08:43 103 6 gusting 11 19.4
2014-Sep-23 08:21 121 6 gusting 12 18.9
2014-Sep-23 07:59 109 6 gusting 13 18.3
2014-Sep-23 07:48 109 9 gusting 13 18.3
2014-Sep-23 07:26 107 6 gusting 12 17.2
2014-Sep-23 07:15 167 6 gusting 13 17.2
2014-Sep-23 07:04 135 4 gusting 13 16.7
2014-Sep-23 06:53 111 6 gusting 8 16.1
2014-Sep-23 06:42 134 5 gusting 11 15.6
2014-Sep-23 06:31 149 5 gusting 12 15.0
2014-Sep-23 06:20 171 1 gusting 9 15.0
2014-Sep-23 06:09 155 7 gusting 5 14.4
2014-Sep-23 05:58 153 6 gusting 3 14.4
2014-Sep-23 05:47 146 1 gusting 2 14.4
2014-Sep-23 05:36 146 14.4
2014-Sep-23 05:25 146 0 gusting 3 14.4
2014-Sep-23 05:14 147 2 gusting 3 14.4
2014-Sep-23 05:03 149 1 gusting 3 14.4
2014-Sep-23 04:52 132 2 gusting 2 14.4
2014-Sep-23 04:41 134 3 gusting 0 15.0
2014-Sep-23 04:19 110 15.6
2014-Sep-23 04:08 110 16.1
2014-Sep-23 03:57 110 16.7
2014-Sep-23 03:46 111 16.7
2014-Sep-23 03:35 142 1 gusting 3 16.7
2014-Sep-23 03:24 146 16.7
2014-Sep-23 03:13 146 1 gusting 4 16.7
2014-Sep-23 03:02 148 1 gusting 2 16.7
2014-Sep-23 02:51 142 0 gusting 6 17.2
2014-Sep-23 02:29 159 1 gusting 6 17.2
2014-Sep-23 02:18 167 3 gusting 7 17.2
2014-Sep-23 02:07 143 3 gusting 7 17.2
2014-Sep-23 01:56 156 5 gusting 5 17.8
2014-Sep-23 01:45 161 1 gusting 8 17.8
2014-Sep-23 01:34 139 4 gusting 10 17.8
2014-Sep-23 01:23 151 6 gusting 12 18.3
2014-Sep-23 01:12 096 6 gusting 8 17.8
2014-Sep-23 01:02 109 9 gusting 8 17.2
2014-Sep-23 00:50 130 6 gusting 0 16.7
2014-Sep-23 00:39 085 1 gusting 1 16.1
2014-Sep-23 00:17 069 16.1
2014-Sep-23 00:06 023 16.1
2014-Sep-22 23:55 023 16.1
2014-Sep-22 23:22 155 2 gusting 6 17.2
2014-Sep-22 23:11 155 2 gusting 5 17.2
2014-Sep-22 23:00 153 2 gusting 5 17.2
2014-Sep-22 22:49 149 0 gusting 4 17.8
2014-Sep-22 22:38 163 1 gusting 4 17.8
2014-Sep-22 22:27 150 1 gusting 3 17.8
2014-Sep-22 22:05 150 1 gusting 4 17.8
2014-Sep-22 21:43 225 1 gusting 2 18.3
2014-Sep-22 21:32 225 18.9
2014-Sep-22 21:21 277 18.9
2014-Sep-22 21:10 277 19.4
2014-Sep-22 20:59 277 19.4
2014-Sep-22 20:37 277 20.0
2014-Sep-22 20:26 277 20.0
2014-Sep-22 20:04 277 1 gusting 5 20.6
2014-Sep-22 19:53 273 4 gusting 2 20.6
2014-Sep-22 19:42 252 0 gusting 3 20.6
2014-Sep-22 19:31 252 1 gusting 1 20.0
2014-Sep-22 19:20 204 20.0
2014-Sep-22 19:09 190 20.6
2014-Sep-22 18:58 200 20.6
2014-Sep-22 18:47 266 20.6
2014-Sep-22 18:36 266 21.1
2014-Sep-22 18:25 266 21.1
2014-Sep-22 18:14 265 2 gusting 4 21.7
2014-Sep-22 18:03 267 1 gusting 6 21.7
2014-Sep-22 17:41 265 1 gusting 5 22.2
2014-Sep-22 17:30 264 2 gusting 6 22.2
2014-Sep-22 17:19 266 2 gusting 9 22.8
2014-Sep-22 17:08 293 4 gusting 8 22.8
2014-Sep-22 16:57 265 4 gusting 10 23.3
2014-Sep-22 16:46 269 2 gusting 13 23.3
2014-Sep-22 16:35 284 2 gusting 11 23.9
2014-Sep-22 16:24 248 2 gusting 10 23.9
2014-Sep-22 15:51 250 1 gusting 11 24.4
2014-Sep-22 15:18 260 6 gusting 13 25.0
2014-Sep-22 15:07 277 6 gusting 9 25.0
2014-Sep-22 14:56 275 6 gusting 9 25.0
2014-Sep-22 14:45 252 5 gusting 10 25.6
2014-Sep-22 14:34 269 4 gusting 9 25.6
2014-Sep-22 14:23 268 25.6
2014-Sep-22 14:01 235 8 gusting 11 25.6
2014-Sep-22 13:50 286 3 gusting 11 25.6
2014-Sep-22 13:39 267 4 gusting 11 25.6
2014-Sep-22 13:28 259 1 gusting 7 25.6
2014-Sep-22 13:17 266 3 gusting 6 26.1
2014-Sep-22 13:06 238 3 gusting 6 26.1
2014-Sep-22 12:55 181 2 gusting 7 26.1
2014-Sep-22 12:44 204 5 gusting 8 26.1
2014-Sep-22 12:33 199 2 gusting 11 26.1
2014-Sep-22 12:22 229 3 gusting 7 26.7
2014-Sep-22 12:11 203 2 gusting 7 26.7
2014-Sep-22 12:00 255 5 gusting 8 26.1
2014-Sep-22 11:49 217 3 gusting 6 26.1
2014-Sep-22 11:38 234 2 gusting 7 26.1
2014-Sep-22 11:16 223 3 gusting 6 26.1
2014-Sep-22 11:05 263 3 gusting 9 26.1
2014-Sep-22 10:54 267 1 gusting 8 25.6
2014-Sep-22 10:32 256 5 gusting 10 25.6
2014-Sep-22 10:10 267 6 gusting 10 25.6
2014-Sep-22 09:59 271 1 gusting 7 25.0
2014-Sep-22 09:37 252 4 gusting 8 25.0
2014-Sep-22 09:15 269 2 gusting 5 24.4
2014-Sep-22 08:53 256 1 gusting 3 23.3
2014-Sep-22 08:43 058 0 gusting 5 22.8
2014-Sep-22 08:31 048 22.2
2014-Sep-22 08:20 005 2 gusting 4 22.2
2014-Sep-22 08:09 012 3 gusting 5 22.8
2014-Sep-22 07:58 009 2 gusting 6 22.8
2014-Sep-22 07:36 123 22.2
2014-Sep-22 07:25 123 21.7
2014-Sep-22 07:14 123 21.1
2014-Sep-22 06:52 123 0 gusting 2 20.6
2014-Sep-22 06:30 138 19.4
2014-Sep-22 06:19 139 19.4
2014-Sep-22 06:08 139 18.9
2014-Sep-22 05:57 139 18.9
2014-Sep-22 05:46 139 1 gusting 2 18.9
2014-Sep-22 05:35 139 18.3
2014-Sep-22 05:24 139 18.3
2014-Sep-22 05:13 139 18.9
2014-Sep-22 05:02 139 18.9